Location: Peach Mountain Observatory
(42.3967°N, 83.9367°W)
Time: 20:45:43
(UTC-04:00)

deb Explorer IX - Pass Details

Date: 23 January 2020
Orbit: 547 x 1101 km, 38.8° (Epoch: 28 March)

Event Time Altitude Azimuth Distance (km) Brightness Sun altitude
Rises 21:54:40 0° 218° (SW) 3,731 - -47.0°
Reaches altitude 10° 21:57:36 10° 208° (SSW) 2,843 - -47.5°
Maximum altitude 22:03:35 31° 150° (SSE) 1,818 - -48.5°
Drops below altitude 10° 22:09:46 10° 92° (E) 2,951 - -49.6°
Sets 22:12:51 0° 82° (E) 3,894 - -50.1°
